User: anonymous   Login
Location: Pilipovskiye Korichintsy
(49.1833°N, 27.4667°E)
Time: 04:28:09
(UTC+00:00)
Language:

SL-8 R/B - Orbit

View from above orbital plane
View from above orbital plane
View from above satellite
View from above satellite

Ground track
Ground track

The orbit data is extracted from the following two-line orbital elements,

1 33066U 08031G   20266.76798063 -.00000135  00000-0  10225-4 0  9996
2 33066  48.4431 286.6107 0007102 124.5729 235.5853 14.69713565658315
Epoch (UTC): 22 September 2020 18:25:53
Eccentricity: 0.0007102
inclination: 48.4431°
perigee height: 657 km
apogee height: 667 km
right ascension of ascending node: 286.6107°
argument of perigee: 124.5729°
revolutions per day: 14.69713565
mean anomaly at epoch: 235.5853°
orbit number at epoch: 65831

The dashed part of the orbit path shows where the satellite is in the earth's shadow,  

DLR